Location: Kuppenheim
(48.8299°N, 8.2568°E)
Time: 09:03:08
(UTC+00:00)

Cosmos 2151 - Pass Details

Date: 20 June 2021
Orbit: 581 x 600 km, 82.5° (Epoch: 26 July)

Event Time Altitude Azimuth Distance (km) Brightness Sun altitude
Exits shadow 01:44:55 16° 197° (SSW) 1,545 4.5 -11.6°
Maximum altitude 01:48:12 73° 280° (W) 616 3.0 -11.3°
Drops below altitude 10° 01:52:26 10° 6° (N) 1,914 6.7 -10.9°
Sets 01:54:39 0° 9° (N) 2,818 7.7 -10.7°
